User: anonymous   Login
Location: *
(51.1248°S, 108.4023°W)
Time: 04:36:44
(UTC+00:00)
Language:

USA 307 - Orbit

View from above orbital plane
View from above orbital plane
View from above satellite
View from above satellite

Ground track
Ground track

The orbit data is extracted from the following two-line orbital elements,

1 45875U 20046C   21260.84487183 0.00002900  00000-0  23643-3 0    00
2 45875  53.9814 224.5795 0007426 355.8733   4.1266 14.99000537    05
Epoch (UTC): 17 September 2021 20:16:36
Eccentricity: 0.0007426
inclination: 53.9814°
perigee height: 565 km
apogee height: 575 km
right ascension of ascending node: 224.5795°
argument of perigee: 355.8733°
revolutions per day: 14.99000537
mean anomaly at epoch: 4.1266°
orbit number at epoch: 0

The dashed part of the orbit path shows where the satellite is in the earth's shadow,  

DLR